Showing default

AAC-AIS-SAT2, 56996

Orbit data source: Space-Track

AAC-AIS-SAT2, 56996 is a payload satellite owned by AAC ClydeSpace (UK) in SSO that was launched on Mon, 12 Jun 2023 UTC via an FALCON 9 launch vehicle from the Air Force Western Test Range (AFWTR). Payload-class satellites include a variety of spacecraft equipped with specific instruments for various scientific and technological missions. These include communications satellites like Starlink; space stations such as the ISS; scientific satellites like the Hubble; Earth observation satellites from companies like Planet Labs, Umbra, and HawkEye 360; GPS; miniature CubeSats for education and research; and military/defense satellites.

Loading next visibility...
Identifier
56996, 2023-084BY
Orbit
SSO
Country
Flag of UKUK
Related business
Manufacturer
AAC ClydeSpace
Mission
Operational Commercial Communications
Bus & Motor
CUBESAT 3U, Unknown motor
Mass
4 kg wet, 4 kg dry
Launch date (UTC)
2023-06-12 (3 years ago)
Launch vehicle
FALCON 9
Launch site
Air Force Western Test Range (AFWTR)
Object type
Payload
Rocket body
Debris
Shape & HBR
Box, 1.0 m
Radar Cross Section
0.035 m², Medium (>0.1 m² and < 1m²)

Expand to show TLE details & history
Last TLE update: 7 hours ago

TLE from 7 hours ago
0 AAC-AIS-SAT2
1 56996U 23084BY  26207.29471152  .00002380  00000-0  27388-3 0  9994
2 56996  98.1526 348.1178 0055858 331.9462  27.8745 14.85673196159186
Epoch: 2026-07-26T07:04Z
TLE epoch observation values (Epoch: 2026-07-26T07:04:23.075Z)
Latitude
0.00003°
Longitude
-61.97305°
Altitude
580.023 km
Speed
7.589 km/s
True Right ascension
23h 12m 28s
True Declination
0° 00' 00"
Sunlit
Object was in full shadow at epoch
Visualization orbit readout
Latitude
Unknown
Longitude
Unknown
Altitude
Unknown
Speed
Unknown
Apparent Right ascension
Unknown
Apparent Declination
Unknown
Sunlit
N/A
Visualization observer readout
Local Sidereal Time
03:05:06
Azimuth
Unknown
Elevation
Unknown
Doppler factor
Unknown
Orbital elements
Apogee altitude
647.544 km
Perigee altitude
569.492 km
Semi-major axis
6,986.655 km
Eccentricity
0.00559
Inclination
98.1526°
RAAN
348.1178°
Arg. of periapsis
331.9462°
True anomaly
28.17562°
Mean anomaly
27.8745°
Eccentric anomaly
28.02487°
Mean motion
3.71654 °/min
Orbital period
96.86 mins
BSTAR
0.00027388
Loading maneuver chart data...
Computing Atmospheric mass density...

Documentation

Showing up to 5 results
|